Location: Orange Harbor Mobile Home Park
(26.6923°N, 81.7937°W)
Time: 22:17:41
(UTC+00:00)

Meteor 2-20 Rocket - Pass Details

Date: 19 September 2020
Orbit: 940 x 960 km, 82.5° (Epoch: 25 October)

Event Time Altitude Azimuth Distance (km) Brightness Sun altitude
Rises 10:45:52 0° 193° (SSW) 3,626 7.3 -7.3°
Reaches altitude 10° 10:48:23 10° 196° (SSW) 2,682 6.6 -6.7°
Maximum altitude 10:54:27 63° 276° (W) 1,061 4.5 -5.3°
Drops below altitude 10° 11:00:32 10° 358° (N) 2,684 6.8 -4.0°
Sets 11:03:04 0° 1° (N) 3,629 7.6 -3.4°
